TimeAKST,TemperatureF,Dew PointF,Humidity,Sea Level PressureIn,VisibilityMPH,Wind Direction,Wind SpeedMPH,Gust SpeedMPH,PrecipitationIn,Events,Conditions,WindDirDegrees,DateUTC
12:53 AM,5.0,-4.0,66,29.58,10.0,Calm,Calm,-,N/A,,Clear,0,2013-01-04 09:53:00
1:53 AM,6.1,-4.0,63,29.59,10.0,Calm,Calm,-,N/A,,Clear,0,2013-01-04 10:53:00
3:25 AM,3.2,-5.8,66,29.59,10.0,Calm,Calm,-,N/A,,Partly Cloudy,0,2013-01-04 12:25:00
3:53 AM,6.1,-4.0,63,29.62,10.0,ENE,3.5,-,N/A,,Scattered Clouds,70,2013-01-04 12:53:00
4:53 AM,5.0,-5.1,63,29.64,10.0,SW,3.5,-,N/A,,Scattered Clouds,220,2013-01-04 13:53:00
5:53 AM,3.9,-4.0,70,29.66,10.0,Calm,Calm,-,N/A,,Scattered Clouds,0,2013-01-04 14:53:00
6:53 AM,6.1,-4.0,63,29.68,9.0,Calm,Calm,-,N/A,,Overcast,0,2013-01-04 15:53:00
7:53 AM,8.1,-0.0,70,29.69,10.0,Calm,Calm,-,N/A,,Mostly Cloudy,0,2013-01-04 16:53:00
8:53 AM,1.0,-2.0,87,29.70,10.0,Calm,Calm,-,N/A,,Mostly Cloudy,0,2013-01-04 17:53:00
9:53 AM,2.8,-0.0,88,29.72,10.0,Calm,Calm,-,N/A,,Mostly Cloudy,0,2013-01-04 18:53:00
10:53 AM,2.8,-0.0,88,29.75,10.0,Calm,Calm,-,N/A,,Mostly Cloudy,0,2013-01-04 19:53:00
11:53 AM,1.9,-0.0,91,29.77,10.0,Calm,Calm,-,N/A,,Mostly Cloudy,0,2013-01-04 20:53:00
12:53 PM,1.9,-0.0,91,29.78,10.0,Calm,Calm,-,N/A,,Mostly Cloudy,0,2013-01-04 21:53:00
1:53 PM,4.1,-0.0,83,29.78,10.0,Calm,Calm,-,N/A,,Mostly Cloudy,0,2013-01-04 22:53:00
2:53 PM,1.0,-2.0,87,29.78,10.0,WSW,3.5,-,N/A,,Scattered Clouds,250,2013-01-04 23:53:00
3:53 PM,-0.8,-4.0,86,29.78,10.0,Calm,Calm,-,N/A,,Scattered Clouds,0,2013-01-05 00:53:00
4:53 PM,1.9,-8.0,63,29.78,10.0,Calm,Calm,-,N/A,,Clear,0,2013-01-05 01:53:00
5:53 PM,1.0,-8.0,66,29.78,10.0,Calm,Calm,-,N/A,,Clear,0,2013-01-05 02:53:00
6:53 PM,-2.0,-11.0,66,29.78,10.0,Calm,Calm,-,N/A,,Clear,0,2013-01-05 03:53:00
7:20 PM,-0.4,-9.4,66,29.74,10.0,Calm,Calm,-,N/A,,Scattered Clouds,0,2013-01-05 04:20:00
7:53 PM,-2.0,-11.0,66,29.77,10.0,Calm,Calm,-,N/A,,Partly Cloudy,0,2013-01-05 04:53:00
8:31 PM,-2.2,-11.2,66,29.71,10.0,NNW,4.6,-,N/A,,Mostly Cloudy,340,2013-01-05 05:31:00
8:53 PM,-9999,-9999,N/A,29.71,10.0,Calm,Calm,-,N/A,,Overcast,0,2013-01-05 05:53:00
9:53 PM,-9999,-9999,N/A,29.70,10.0,Calm,Calm,-,N/A,,Scattered Clouds,0,2013-01-05 06:53:00
10:53 PM,-9999,-9999,N/A,29.69,10.0,Calm,Calm,-,N/A,,Clear,0,2013-01-05 07:53:00
11:14 PM,-9999,-9999,N/A,29.69,10.0,Calm,Calm,-,N/A,,Scattered Clouds,0,2013-01-05 08:14:00
11:53 PM,-9.0,-13.0,83,29.72,10.0,North,4.6,-,N/A,,Partly Cloudy,350,2013-01-05 08:53:00